FW9097 Weather Reports


time (UTC)temp
C
wind
direction
speed
KPH
gust
KPH
rain 1hr
cm
rain 24hr
cm
rain mn
cm
humidity
%
barometer
mb
20260505113106 11 0 0.0 3.2 0.00 0.00 0.00 89 1014.6
20260505111547 11 0 0.0 0.0 0.00 0.00 0.00 89 1014.6
20260505101547 11 0 0.0 3.2 0.00 0.00 0.00 90 1014.3
20260505100047 11 0 0.0 1.6 0.00 0.00 0.00 90 1014.3
20260505094550 11 202 0.0 1.6 0.00 0.00 0.00 90 1014.2
20260505093052 11 0 0.0 4.8 0.00 0.00 0.00 90 1014.2
20260505091545 10 0 0.0 3.2 0.00 0.00 0.00 90 1014.0
20260505090050 10 0 0.0 6.4 0.00 0.00 0.00 90 1013.9
20260505084553 10 0 0.0 0.0 0.00 0.00 0.00 90 1013.9
20260505083103 10 0 0.0 0.0 0.00 0.00 0.00 90 1013.9
20260505081552 10 0 0.0 0.0 0.00 0.00 0.00 90 1013.9
20260505080047 10 0 0.0 0.0 0.00 0.00 0.00 90 1013.9
20260505074551 10 0 0.0 0.0 0.00 0.00 0.00 89 1013.9
20260505073100 10 0 0.0 0.0 0.00 0.00 0.00 88 1013.6
20260505071547 10 0 0.0 0.0 0.00 0.00 0.00 88 1013.4
20260505070050 11 0 0.0 0.0 0.00 0.00 0.00 88 1013.2
20260505064554 11 0 0.0 1.6 0.00 0.00 0.00 87 1013.1
20260505063045 11 0 0.0 4.8 0.00 0.00 0.00 87 1013.0
20260505061552 11 233 0.0 3.2 0.00 0.00 0.00 87 1012.7
20260505060059 11 0 0.0 1.6 0.00 0.00 0.00 86 1012.9
20260505054552 12 0 0.0 4.8 0.00 0.00 0.00 86 1012.8
20260505053109 12 0 0.0 4.8 0.00 0.00 0.00 85 1012.8
20260505051547 12 0 0.0 6.4 0.00 0.00 0.00 85 1012.7
20260505050104 12 0 0.0 4.8 0.00 0.00 0.00 84 1012.5
20260505041548 13 360 3.2 9.7 0.00 0.00 0.00 83 1012.2
20260505040050 13 0 0.0 14.5 0.00 0.00 0.00 82 1012.0
20260505034611 13 182 1.6 14.5 0.00 0.00 0.00 81 1011.8
20260505033053 14 291 0.0 11.3 0.00 0.00 0.00 80 1011.7
20260505031548 15 0 3.2 11.3 0.00 0.00 0.00 79 1011.6
20260505030059 15 234 1.6 9.7 0.00 0.00 0.00 77 1011.5
20260505024549 16 198 1.6 16.1 0.00 0.00 0.00 75 1011.2
20260505023049 16 248 3.2 14.5 0.00 0.00 0.00 72 1011.1
20260505021551 17 226 3.2 20.9 0.00 0.00 0.00 70 1011.0
20260505020053 18 0 3.2 12.9 0.00 0.00 0.00 68 1010.9
20260505014549 18 226 3.2 17.7 0.00 0.00 0.00 66 1010.8
20260505013047 19 325 3.2 22.5 0.00 0.00 0.00 64 1010.7
20260505011605 20 188 3.2 14.5 0.00 0.00 0.00 63 1010.8
20260505010055 21 238 1.6 17.7 0.00 0.00 0.00 61 1010.8
20260505004545 21 65 3.2 20.9 0.00 0.00 0.00 60 1010.7
20260505003053 21 0 4.8 20.9 0.00 0.00 0.00 58 1010.6
20260505001603 22 350 3.2 12.9 0.00 0.00 0.00 57 1010.6
20260505000105 23 109 3.2 12.9 0.00 0.00 0.00 56 1010.6
20260504234557 23 0 4.8 19.3 0.00 0.00 0.00 54 1010.6
20260504233102 23 297 3.2 19.3 0.00 0.00 0.00 54 1010.7
20260504231549 24 5 4.8 16.1 0.00 0.00 0.00 54 1010.7
20260504230047 23 325 4.8 16.1 0.00 0.00 0.00 54 1010.8
20260504224548 23 323 3.2 14.5 0.00 0.00 0.00 56 1010.9
20260504223051 23 302 1.6 19.3 0.00 0.00 0.00 58 1011.1
20260504221548 23 337 4.8 17.7 0.00 0.00 0.00 55 1011.2
20260504220048 24 0 1.6 16.1 0.00 0.00 0.00 55 1011.2
20260504214547 23 332 4.8 16.1 0.00 0.00 0.00 55 1011.3
20260504213052 23 320 3.2 16.1 0.00 0.00 0.00 58 1011.4
20260504211551 23 67 3.2 20.9 0.00 0.00 0.00 57 1011.8
20260504210049 23 296 4.8 12.9 0.00 0.00 0.00 60 1011.5
20260504204547 22 327 4.8 12.9 0.00 0.00 0.00 61 1011.6
20260504203049 22 241 4.8 12.9 0.00 0.00 0.00 62 1011.8
20260504201551 22 226 3.2 9.7 0.00 0.00 0.00 63 1011.7
20260504200049 21 51 0.0 8.0 0.00 0.00 0.00 66 1011.7
20260504194555 21 80 3.2 9.7 0.00 0.00 0.00 66 1011.8
20260504193046 21 341 1.6 9.7 0.00 0.00 0.00 66 1011.8
20260504191602 20 301 3.2 11.3 0.00 0.00 0.00 67 1012.2
20260504190051 20 39 3.2 11.3 0.00 0.00 0.00 68 1012.2
20260504184549 20 323 1.6 6.4 0.00 0.00 0.00 67 1012.2
20260504183047 20 0 1.6 8.0 0.00 0.00 0.00 70 1012.2
20260504181551 19 46 1.6 12.9 0.00 0.00 0.00 71 1012.3
20260504180048 20 283 1.6 8.0 0.00 0.00 0.00 70 1012.3
20260504174551 18 337 1.6 8.0 0.00 0.00 0.00 72 1012.2
20260504173049 18 265 0.0 8.0 0.00 0.00 0.00 74 1012.4
20260504171552 18 0 1.6 12.9 0.00 0.00 0.00 73 1012.3